GPS BIIR-13

Last updated on Tue Sep 22 2026 00:03:02 GMT+0000 (Coordinated Universal Time)

1 28474U 04045A 26264.10249912 -.00000060 00000+0 00000+0 0 9991 2 28474 55.0735 321.0272 0172398 318.7874 92.7543 2.00560211160359
UTC large
Height (km)
Speed (km/s)
/
Latitude / Longitude
Inclination (degrees)
Orbital Period (minutes)
Azimuth
Elevation
Range (km)
Doppler Factor

Next 0 passes for location: London (51.5072 / 0.1276)

No passes found over London.
GPS BIIR-13